TimePST,TemperatureF,Dew PointF,Humidity,Sea Level PressureIn,VisibilityMPH,Wind Direction,Wind SpeedMPH,Gust SpeedMPH,PrecipitationIn,Events,Conditions,WindDirDegrees,DateUTC
12:53 AM,25.0,8.1,49,30.14,10.0,Variable,5.8,25.3,N/A,,Clear,0,2013-02-24 08:53:00
1:53 AM,25.0,6.1,45,30.16,10.0,NE,13.8,23.0,N/A,,Clear,40,2013-02-24 09:53:00
2:53 AM,25.0,5.0,43,30.15,10.0,ENE,5.8,-,N/A,,Clear,70,2013-02-24 10:53:00
3:53 AM,21.0,6.1,53,30.16,10.0,Variable,4.6,-,N/A,,Clear,0,2013-02-24 11:53:00
4:53 AM,17.1,6.1,62,30.20,10.0,South,4.6,-,N/A,,Clear,180,2013-02-24 12:53:00
5:53 AM,17.1,7.0,65,30.23,10.0,WSW,3.5,-,N/A,,Clear,250,2013-02-24 13:53:00
6:53 AM,16.0,8.1,71,30.26,10.0,South,6.9,-,N/A,,Clear,180,2013-02-24 14:53:00
7:53 AM,19.0,9.0,65,30.27,10.0,South,4.6,-,N/A,,Clear,190,2013-02-24 15:53:00
8:53 AM,27.0,10.9,51,30.26,10.0,Calm,Calm,-,N/A,,Clear,0,2013-02-24 16:53:00
9:53 AM,30.9,9.0,40,30.24,10.0,Calm,Calm,-,N/A,,Clear,0,2013-02-24 17:53:00
10:53 AM,32.0,9.0,38,30.24,10.0,Calm,Calm,-,N/A,,Clear,0,2013-02-24 18:53:00
11:53 AM,36.0,10.0,34,30.24,10.0,Variable,5.8,-,N/A,,Clear,0,2013-02-24 19:53:00
12:53 PM,39.0,5.0,24,30.21,10.0,Variable,3.5,-,N/A,,Clear,0,2013-02-24 20:53:00
1:53 PM,39.9,5.0,23,30.19,10.0,Variable,3.5,-,N/A,,Clear,0,2013-02-24 21:53:00
2:53 PM,39.9,10.0,29,30.19,10.0,NNE,5.8,-,N/A,,Clear,20,2013-02-24 22:53:00
3:53 PM,41.0,6.1,24,30.21,10.0,Calm,Calm,-,N/A,,Clear,0,2013-02-24 23:53:00
4:53 PM,37.0,9.0,31,30.23,10.0,North,3.5,-,N/A,,Clear,10,2013-02-25 00:53:00
5:53 PM,32.0,12.0,44,30.26,10.0,Calm,Calm,-,N/A,,Clear,0,2013-02-25 01:53:00
6:53 PM,28.9,12.0,49,30.29,10.0,Calm,Calm,-,N/A,,Clear,0,2013-02-25 02:53:00
7:53 PM,28.0,10.9,49,30.29,10.0,Calm,Calm,-,N/A,,Clear,0,2013-02-25 03:53:00
8:53 PM,26.1,12.0,55,30.26,10.0,Calm,Calm,-,N/A,,Clear,0,2013-02-25 04:53:00
9:53 PM,25.0,12.0,58,30.26,10.0,Calm,Calm,-,N/A,,Clear,0,2013-02-25 05:53:00
10:53 PM,23.0,10.9,60,30.25,10.0,Calm,Calm,-,N/A,,Clear,0,2013-02-25 06:53:00
11:53 PM,21.0,10.0,63,30.25,10.0,South,4.6,-,N/A,,Clear,180,2013-02-25 07:53:00